time_stamp(utc),avg(mph),gust(mph),direction(deg),12m_air_temp(f),sonic_u(cm/s),sonic_v(cm/s),sonic_w(cm/s),pressure,2m_air_temp(f),pyranometer(W/m^2)
"2019-02-24 00:02:07+00",12.1,14.1,,39.2,497,208,31,1023.77,38.9,0
"2019-02-24 00:07:07+00",11.7,13.7,,39.2,460,238,31,1023.74,39,0
"2019-02-24 00:12:07+00",12.2,14.2,,39.2,475,263,17,1023.86,39,0
"2019-02-24 00:17:07+00",13.2,15.2,,39.3,503,295,30,1023.84,39,0
"2019-02-24 00:22:07+00",13.1,14.1,,39.3,512,271,29,1023.85,39.1,0
"2019-02-24 00:27:07+00",11.3,14.3,,39.4,443,231,25,1023.84,39.1,0
"2019-02-24 00:32:07+00",10.5,13.5,,39.5,431,175,28,1023.83,39.2,0
"2019-02-24 00:37:07+00",10.8,12.8,,39.5,464,158,32,1023.66,39.2,0
"2019-02-24 00:42:07+00",11.4,13.4,,39.6,496,146,40,1023.5,39.3,0
"2019-02-24 00:47:07+00",11.9,14.9,,39.7,515,150,45,1023.54,39.4,0
"2019-02-24 00:52:07+00",12.3,14.3,,39.7,536,126,34,1023.44,39.4,0
"2019-02-24 00:57:07+00",12.4,14.4,,39.7,543,116,20,1023.1,39.5,0
"2019-02-24 01:02:07+00",12.8,14.8,,39.7,558,140,29,1023,39.5,0
"2019-02-24 01:07:07+00",12.5,15.5,,39.8,540,153,25,1023.11,39.5,0
"2019-02-24 01:12:07+00",10.2,11.2,,39.8,431,147,29,1023.43,39.5,0
"2019-02-24 01:17:07+00",9.5,10.5,,39.8,393,149,25,1023.73,39.5,0
"2019-02-24 01:22:07+00",11.1,12.1,,39.9,450,209,25,1023.71,39.5,0
"2019-02-24 01:27:07+00",10.8,12.8,,40,426,209,30,1023.52,39.6,0
"2019-02-24 01:32:07+00",11.0,13.0,,40.1,458,185,34,1023.52,39.6,0
"2019-02-24 01:37:07+00",11.6,13.6,,40,496,152,31,1023.05,39.6,0
"2019-02-24 01:42:07+00",12.0,13.0,,39.9,519,156,28,1022.88,39.6,0
"2019-02-24 01:47:07+00",13.1,15.1,,39.8,567,164,31,1022.81,39.5,0
"2019-02-24 01:52:07+00",12.7,14.7,,39.7,538,192,33,1022.56,39.4,0
"2019-02-24 01:57:07+00",11.2,13.2,,39.6,482,142,40,1022.47,39.3,0
"2019-02-24 02:02:07+00",14.6,17.6,,39.6,626,193,32,1022.3,39.2,0
"2019-02-24 02:07:07+00",14.1,17.1,,39.6,600,192,25,1022.35,39.2,0
"2019-02-24 02:12:07+00",13.8,15.8,,39.6,589,176,35,1022.41,39.2,0
"2019-02-24 02:17:07+00",13.2,15.2,,39.6,559,189,23,1022.41,39.2,0
"2019-02-24 02:22:07+00",12.1,14.1,,39.6,505,196,25,1022.42,39.2,0
"2019-02-24 02:27:07+00",13.0,16.0,,39.6,541,202,28,1022.24,39.2,0
"2019-02-24 02:32:07+00",14.2,17.2,,39.7,651,138,80,1022.16,39.3,0
"2019-02-24 02:37:07+00",14.1,16.1,,39.8,607,194,28,1022.05,39.3,0
"2019-02-24 02:42:07+00",14.2,16.2,,39.8,599,208,35,1021.89,39.3,0
"2019-02-24 02:47:07+00",14.4,18.4,,39.8,608,204,32,1021.76,39.3,0
"2019-02-24 02:52:07+00",14.7,16.7,,39.8,629,187,25,1021.46,39.4,0
"2019-02-24 02:57:07+00",14.6,17.6,,39.8,628,164,47,1021.2,39.3,0
"2019-02-24 03:02:07+00",13.6,16.6,,39.7,417,447,-129,1021.08,39.4,0
"2019-02-24 03:07:07+00",14.5,17.5,,39.8,628,154,57,1020.83,39.4,0
"2019-02-24 03:12:07+00",15.9,18.9,,40,681,196,48,1020.79,39.5,0
"2019-02-24 03:17:07+00",15.6,17.6,,40,672,179,43,1020.57,39.5,0
"2019-02-24 03:22:07+00",14.5,16.5,,40,630,147,58,1020.58,39.5,0
"2019-02-24 03:27:07+00",14.6,17.6,,40.1,633,135,52,1020.18,39.5,0
"2019-02-24 03:32:07+00",16.1,19.1,,40.1,696,159,53,1020.25,39.6,0
"2019-02-24 03:37:07+00",14.7,18.7,,40.1,642,158,58,1020.23,39.6,0
"2019-02-24 03:42:07+00",14.6,17.6,,40.2,631,160,32,1020.08,39.6,0
"2019-02-24 03:47:07+00",15.5,18.5,,40.2,518,394,-105,1019.96,39.7,0
"2019-02-24 03:52:07+00",16.2,18.2,,40.3,699,127,44,1019.86,39.7,0
"2019-02-24 03:57:07+00",12.9,14.9,,40.2,565,97,49,1019.8,39.7,0
"2019-02-24 04:02:07+00",15.1,18.1,,40.3,650,152,40,1019.85,39.8,0
"2019-02-24 04:07:07+00",15.2,16.2,,40.3,659,152,17,1019.71,39.8,0
"2019-02-24 04:12:07+00",14.9,17.9,,40.3,638,196,23,1019.56,39.9,0
"2019-02-24 04:17:07+00",15.0,17.0,,40.2,646,177,34,1019.29,39.9,0
"2019-02-24 04:22:07+00",15.5,17.5,,40.3,664,155,42,1018.96,39.9,0
"2019-02-24 04:27:07+00",17.0,19.0,,40.3,731,174,31,1018.76,40,0
"2019-02-24 04:32:07+00",14.6,17.6,,40.3,627,171,29,1018.73,40,0
"2019-02-24 04:37:07+00",15.9,17.9,,40.3,688,171,28,1018.68,40,0
"2019-02-24 04:42:07+00",16.1,18.1,,40.5,690,154,38,1018.56,40.1,0
"2019-02-24 04:47:07+00",17.2,19.2,,40.6,743,162,46,1018.41,40.1,0
"2019-02-24 04:52:07+00",15.4,18.4,,40.5,656,159,41,1018.23,40.2,0
"2019-02-24 04:57:07+00",15.0,17.0,,40.5,594,104,-12,1018.04,40.1,0
"2019-02-24 05:02:07+00",16.9,19.9,,40.5,716,145,14,1017.79,40.2,0
"2019-02-24 05:07:07+00",16.3,18.3,,40.6,705,127,50,1017.65,40.2,0
"2019-02-24 05:12:07+00",17.0,19.0,,40.9,583,-80,-99,1017.54,40.4,0
"2019-02-24 05:17:07+00",18.1,21.1,,41.2,747,66,15,1017.46,40.7,0
"2019-02-24 05:22:07+00",16.5,20.5,,41,705,109,28,1017.28,40.6,0
"2019-02-24 05:27:07+00",16.4,19.4,,41.2,661,33,7,1017.08,40.7,0
"2019-02-24 05:32:07+00",17.0,20.0,,41.4,715,118,30,1016.96,40.9,0
"2019-02-24 05:37:07+00",17.8,20.8,,41.4,636,-129,-107,1016.69,41,0
"2019-02-24 05:42:07+00",18.5,22.5,,41.6,777,44,-1,1016.76,41.1,0
"2019-02-24 05:47:07+00",18.4,20.4,,41.6,794,106,50,1016.6,41.2,0
"2019-02-24 05:52:07+00",17.7,20.7,,41.7,767,115,47,1016.5,41.2,0
"2019-02-24 05:57:07+00",17.3,22.3,,41.7,734,148,46,1016.36,41.2,0
"2019-02-24 06:02:07+00",16.8,19.8,,41.8,714,136,76,1016.23,41.4,0
"2019-02-24 06:07:07+00",18.9,20.9,,41.9,811,165,46,1016.11,41.4,0
"2019-02-24 06:12:07+00",18.7,20.7,,41.9,798,139,22,1015.83,41.5,0
"2019-02-24 06:17:07+00",16.7,18.7,,42,712,96,58,1015.6,41.5,0
"2019-02-24 06:22:07+00",18.0,21.0,,42.2,783,102,61,1015.47,41.7,0
"2019-02-24 06:27:07+00",19.9,23.9,,42.3,838,114,36,1015.23,41.8,0
"2019-02-24 06:32:07+00",19.8,21.8,,42.5,824,41,-2,1014.96,41.9,0
"2019-02-24 06:37:07+00",16.9,19.9,,42.5,703,61,49,1014.89,42,0
"2019-02-24 06:42:07+00",17.8,19.8,,42.7,774,123,57,1014.77,42.1,0
"2019-02-24 06:47:07+00",19.6,21.6,,42.8,846,125,31,1014.47,42.2,0
"2019-02-24 06:52:07+00",20.9,22.9,,43.1,840,117,88,1014.13,42.4,0
"2019-02-24 06:57:07+00",20.7,23.7,,43,784,137,108,1014.01,42.5,0
"2019-02-24 07:02:07+00",18.4,20.4,,42.9,803,92,58,1013.87,42.5,0
"2019-02-24 07:07:07+00",19.0,22.0,,43.1,836,103,58,1013.65,42.5,0
"2019-02-24 07:12:07+00",18.4,21.4,,43,811,73,58,1013.55,42.5,0
"2019-02-24 07:17:07+00",18.5,20.5,,43,818,71,54,1013.29,42.5,0
"2019-02-24 07:22:07+00",19.9,22.9,,43.1,901,60,38,1013.03,42.6,0
"2019-02-24 07:27:07+00",19.5,22.5,,43.1,866,77,41,1013.07,42.6,0
"2019-02-24 07:32:07+00",19.3,22.3,,43.2,848,97,39,1012.91,42.7,0
"2019-02-24 07:37:07+00",18.2,20.2,,43.2,807,66,39,1012.73,42.8,0
"2019-02-24 07:42:07+00",19.0,22.0,,43.6,833,91,61,1012.46,42.9,0
"2019-02-24 07:47:07+00",18.5,20.5,,43.7,810,98,57,1012.31,43.1,0
"2019-02-24 07:52:07+00",17.3,20.3,,43.8,762,81,50,1012.33,43.2,0
"2019-02-24 07:57:07+00",17.0,19.0,,43.8,747,52,45,1012.12,43.2,0
"2019-02-24 08:02:07+00",16.3,20.3,,43.8,722,70,39,1012.13,43.2,0
"2019-02-24 08:07:07+00",15.5,16.5,,43.6,677,46,38,1012.14,43.1,0
"2019-02-24 08:12:07+00",16.6,18.6,,44,726,62,46,1011.93,43.2,0
"2019-02-24 08:17:07+00",17.3,19.3,,43.8,762,30,38,1011.59,43.2,0
"2019-02-24 08:22:07+00",17.3,20.3,,43.9,770,91,37,1011.31,43.2,0
"2019-02-24 08:27:07+00",17.6,19.6,,43.9,785,138,57,1010.83,43.4,0
"2019-02-24 08:32:07+00",18.6,23.6,,44.2,820,165,43,1010.42,43.6,0
"2019-02-24 08:37:07+00",20.0,24.0,,44.3,1034,164,-24,1009.77,43.8,0
"2019-02-24 08:42:07+00",24.0,28.0,,44.5,1541,151,-241,1009.08,43.9,0
"2019-02-24 08:47:07+00",22.7,25.7,,44.5,1477,141,-219,1009.11,43.9,0
"2019-02-24 08:52:07+00",22.9,26.9,,44.5,1612,138,-295,1008.88,43.9,0
"2019-02-24 08:57:07+00",20.9,23.9,,44.3,1034,86,-18,1008.88,43.8,0
"2019-02-24 09:02:07+00",20.2,24.2,,44.3,1110,81,-57,1008.56,43.8,0
"2019-02-24 09:07:07+00",21.2,26.2,,44.1,1341,82,-175,1008.12,43.6,0
"2019-02-24 09:12:07+00",20.7,23.7,,44.1,1058,57,-15,1008.02,43.6,0
"2019-02-24 09:17:07+00",18.2,21.2,,44.5,802,51,64,1008.45,43.8,0
"2019-02-24 09:22:07+00",16.7,21.7,,44.6,738,-19,36,1008.75,44,0
"2019-02-24 09:27:07+00",17.6,20.6,,44.4,776,-57,53,1008.66,44,0
"2019-02-24 09:32:07+00",16.7,18.7,,44.2,725,-82,32,1008.16,43.7,0
"2019-02-24 09:37:07+00",17.0,19.0,,44.2,732,-135,15,1008.33,43.7,0
"2019-02-24 09:42:07+00",14.7,16.7,,44.1,633,-115,31,1008.23,43.6,0
"2019-02-24 09:47:07+00",13.0,16.0,,44.1,551,-152,13,1008.52,43.7,0
"2019-02-24 09:52:07+00",13.1,15.1,,44,555,-131,-3,1008.33,43.6,0
"2019-02-24 09:57:07+00",10.8,12.8,,44,469,-75,19,1008.34,43.5,0
"2019-02-24 10:02:07+00",12.0,14.0,,43.9,525,-49,17,1008.03,43.5,0
"2019-02-24 10:07:07+00",11.4,13.4,,43.7,513,5,27,1007.8,43.4,0
"2019-02-24 10:12:07+00",12.5,13.5,,43.8,542,-4,28,1007.46,43.3,0
"2019-02-24 10:17:07+00",10.2,11.2,,43.7,445,-40,25,1007.7,43.3,0
"2019-02-24 10:22:07+00",12.5,15.5,,43.8,529,-141,17,1007.59,43.4,0
"2019-02-24 10:27:07+00",14.0,16.0,,43.7,614,-79,21,1007.01,43.2,0
"2019-02-24 10:32:07+00",12.8,14.8,,43.8,564,-38,28,1006.73,43.3,0
"2019-02-24 10:37:07+00",12.0,13.0,,43.6,522,-1,35,1006.57,43.2,0
"2019-02-24 10:42:07+00",11.9,14.9,,43.7,521,-61,15,1006.53,43.2,0
"2019-02-24 10:47:07+00",11.9,13.9,,43.8,502,-121,8,1006.37,43.3,0
"2019-02-24 10:52:07+00",13.0,14.0,,43.7,546,-169,11,1005.76,43.2,0
"2019-02-24 10:57:07+00",13.3,15.3,,43.8,543,-232,8,1005.64,43.3,0
"2019-02-24 11:02:07+00",13.5,15.5,,43.8,541,-267,3,1005.46,43.4,0
"2019-02-24 11:07:07+00",14.0,16.0,,43.9,517,-326,9,1005.17,43.4,0
"2019-02-24 11:12:07+00",14.5,16.5,,44.2,471,-437,-5,1005.3,43.6,0
"2019-02-24 11:17:07+00",14.2,16.2,,44.6,350,-509,-18,1005.57,44,0
"2019-02-24 11:22:07+00",15.0,18.0,,45,337,-551,-3,1005.19,44.5,0
"2019-02-24 11:27:07+00",11.4,12.4,,45.4,152,-477,-14,1005.47,44.9,0
"2019-02-24 11:32:07+00",8.4,10.4,,44.9,92,-341,-13,1005.43,44.7,0
"2019-02-24 11:37:07+00",9.1,12.1,,44.6,56,-384,4,1005.3,44.4,0
"2019-02-24 11:42:07+00",11.0,14.0,,44.7,70,-472,-7,1005.11,44.4,0
"2019-02-24 11:47:07+00",12.2,15.2,,44.2,59,-522,-6,1004.94,44,0
"2019-02-24 11:52:07+00",11.2,15.2,,44.6,-76,-466,-11,1005.12,44.2,0
"2019-02-24 11:57:07+00",12.0,16.0,,45.4,-147,-479,5,1005.07,45,0
"2019-02-24 12:02:07+00",14.9,16.9,,45.3,-259,-573,-1,1005.14,45,0
"2019-02-24 12:07:07+00",14.5,17.5,,45.3,-326,-535,1,1005.25,44.9,0
"2019-02-24 12:12:07+00",11.3,13.3,,45.4,-342,-361,13,1005.23,44.9,0
"2019-02-24 12:17:07+00",13.2,15.2,,45.9,-418,-400,11,1005.32,45.2,0
"2019-02-24 12:22:07+00",15.1,17.1,,46,-480,-448,4,1005.34,45.4,0
"2019-02-24 12:27:07+00",17.3,20.3,,46.1,-589,-446,20,1005.26,45.6,0
"2019-02-24 12:32:07+00",15.4,18.4,,45.7,-557,-353,22,1005.19,45.3,0
"2019-02-24 12:37:07+00",15.8,18.8,,45.2,-573,-388,18,1005.28,44.8,0
"2019-02-24 12:42:07+00",15.3,17.3,,44.9,-583,-361,20,1005.29,44.6,0
"2019-02-24 12:47:07+00",14.5,16.5,,44.7,-509,-365,12,1005.2,44.3,0
"2019-02-24 12:52:07+00",13.6,15.6,,44.6,-450,-370,5,1005.02,44.2,0
"2019-02-24 12:57:07+00",11.9,13.9,,44.8,-413,-303,6,1004.82,44.2,0
"2019-02-24 13:02:07+00",10.0,11.0,,45,-410,-208,19,1004.66,44.4,0
"2019-02-24 13:07:07+00",10.6,12.6,,44.9,-478,-172,25,1004.95,44.3,0
"2019-02-24 13:12:07+00",12.7,14.7,,45.4,-551,-162,26,1005.23,44.4,0
"2019-02-24 13:17:07+00",14.7,17.7,,46,-1464,-138,424,1005.34,44.9,0
"2019-02-24 13:22:07+00",15.8,18.8,,46.5,-1430,-176,424,1005.41,45.3,0
"2019-02-24 13:27:07+00",16.7,18.7,,47,-2271,-124,773,1005.27,45.6,0
"2019-02-24 13:32:07+00",15.6,18.6,,47.2,-1323,26,213,1005.26,45.9,0
"2019-02-24 13:37:07+00",17.8,21.8,,47.4,-3455,1379,-12,1005.15,46,0
"2019-02-24 13:42:07+00",17.2,19.2,,47.2,-4027,3833,-1720,1005.05,45.9,0
"2019-02-24 13:47:07+00",17.6,19.6,,47.2,-3793,785,703,1005.02,45.7,0
"2019-02-24 13:52:07+00",15.9,18.9,,47.1,-1727,-154,580,1004.82,45.7,0
"2019-02-24 13:57:07+00",17.3,20.3,,47,-2552,-113,959,1004.66,45.6,0
"2019-02-24 14:02:07+00",17.5,19.5,,46.8,-2158,-150,735,1004.58,45.5,0
"2019-02-24 14:07:07+00",17.2,22.2,,46.8,-1448,266,-17,1004.25,45.3,0
"2019-02-24 14:12:07+00",12.7,16.7,,46.2,-533,-261,25,1004.11,45.1,0
"2019-02-24 14:17:07+00",12.9,13.9,,46,-565,-256,18,1004.12,45,0.6
"2019-02-24 14:22:07+00",13.1,16.1,,46,-539,-281,10,1003.74,44.9,2.1
"2019-02-24 14:27:07+00",14.6,18.6,,45.5,-507,-372,18,1003.73,44.6,0.1
"2019-02-24 14:32:07+00",14.8,16.8,,45.2,-529,-363,14,1003.8,44.4,0
"2019-02-24 14:37:07+00",15.0,17.0,,44.8,-544,-361,17,1003.96,44.1,0
"2019-02-24 14:42:07+00",15.8,18.8,,44.5,-564,-394,21,1003.9,43.8,0
"2019-02-24 14:47:07+00",16.6,18.6,,44.4,-536,-475,15,1003.61,43.7,0
"2019-02-24 14:52:07+00",17.1,19.1,,44.3,-673,-411,53,1003.48,43.6,0
"2019-02-24 14:57:07+00",15.0,17.0,,44.1,-475,-451,11,1003.46,43.5,0
"2019-02-24 15:02:07+00",15.8,17.8,,43.9,-430,-550,13,1003.29,43.4,0
"2019-02-24 15:07:07+00",18.2,21.2,,43.8,-545,-609,9,1003.44,43.3,0.5
"2019-02-24 15:12:07+00",17.3,19.3,,43.6,-458,-622,5,1003.14,43.1,6.5
"2019-02-24 15:17:07+00",16.9,20.9,,43.4,-441,-613,2,1002.86,43,7.5
"2019-02-24 15:22:07+00",18.4,19.4,,43.3,-551,-610,13,1002.77,42.8,0.4
"2019-02-24 15:27:07+00",16.2,19.2,,43,-390,-586,5,1002.38,42.6,0
"2019-02-24 15:32:07+00",16.6,19.6,,42.8,-380,-597,1,1001.72,42.4,0
"2019-02-24 15:37:07+00",15.8,19.8,,42.8,-356,-575,9,1001.7,42.4,15.4
"2019-02-24 15:42:07+00",14.7,16.7,,42.8,-454,-470,22,1002.05,42.3,3.1
"2019-02-24 15:47:07+00",13.2,16.2,,42.5,-283,-488,3,1001.89,42.2,1.2
"2019-02-24 15:52:07+00",14.3,16.3,,42.3,-427,-476,18,1001.89,42,0
"2019-02-24 15:57:07+00",17.4,20.4,,42.3,-551,-516,12,1001.79,41.9,13.1
"2019-02-24 16:02:07+00",22.6,26.6,,42.3,-715,-499,90,1001.97,41.7,22.5
"2019-02-24 16:07:07+00",21.1,23.1,,42,-663,-637,20,1002.04,41.6,13.5
"2019-02-24 16:12:07+00",19.1,22.1,,41.8,-599,-611,12,1001.69,41.4,0
"2019-02-24 16:17:07+00",17.5,20.5,,41.7,-522,-584,27,1001.58,41.4,15.5
"2019-02-24 16:22:07+00",16.5,18.5,,41.7,-461,-566,12,1001.43,41.5,48.9
"2019-02-24 16:27:07+00",14.3,17.3,,41.7,-403,-489,10,1001.26,41.6,43.9
"2019-02-24 16:32:07+00",12.1,14.1,,41.8,-337,-417,13,1001.15,41.8,191.4
"2019-02-24 16:37:07+00",14.6,17.6,,42.2,-425,-460,23,1001.08,42.1,46.8
"2019-02-24 16:42:07+00",14.9,18.9,,42.3,-399,-472,53,1001.04,42.1,37.8
"2019-02-24 16:47:07+00",15.6,18.6,,42.4,-392,-553,15,1000.79,42.1,46.9
"2019-02-24 16:52:07+00",15.1,17.1,,42.4,-353,-551,-13,1000.65,42.2,49.3
"2019-02-24 16:57:07+00",14.3,16.3,,42.4,-294,-535,-1,1000.47,42.2,56.2
"2019-02-24 17:02:07+00",15.1,18.1,,42.4,-298,-573,11,1000.21,42.3,51.3
"2019-02-24 17:07:07+00",19.1,24.1,,42.3,-371,-728,5,999.94,42.3,46.6
"2019-02-24 17:12:07+00",18.8,23.8,,42.2,-311,-750,-5,999.78,42.2,47.2
"2019-02-24 17:17:07+00",16.9,20.9,,41.9,-275,-664,2,999.63,42,50.4
"2019-02-24 17:22:07+00",16.5,21.5,,41.8,-321,-631,21,999.59,41.8,47.5
"2019-02-24 17:27:07+00",18.0,20.0,,41.9,-356,-691,4,999.37,41.9,55.7
"2019-02-24 17:32:07+00",21.2,25.2,,42,-513,-786,11,999.48,41.9,54.6
"2019-02-24 17:37:07+00",20.7,22.7,,41.9,-527,-758,7,999.45,41.8,52.7
"2019-02-24 17:42:07+00",19.7,22.7,,41.8,-499,-720,1,999.34,41.7,47.3
"2019-02-24 17:47:07+00",18.5,20.5,,41.8,-524,-656,22,999.19,41.7,41.7
"2019-02-24 17:52:07+00",19.7,22.7,,41.9,-574,-677,5,998.97,41.8,38.2
"2019-02-24 17:57:07+00",19.5,22.5,,41.8,-586,-645,10,998.7,41.7,41.6
"2019-02-24 18:02:07+00",15.3,17.3,,41.7,-491,-460,31,998.71,41.7,30.4
"2019-02-24 18:07:07+00",17.8,21.8,,41.6,-564,-577,25,998.4,41.6,31.7
"2019-02-24 18:12:07+00",18.5,20.5,,41.6,-527,-647,7,997.98,41.6,39.5
"2019-02-24 18:17:07+00",19.2,21.2,,41.7,-526,-686,11,997.65,41.7,42.3
"2019-02-24 18:22:07+00",17.9,20.9,,41.8,-448,-666,24,997.44,41.8,45.6
"2019-02-24 18:27:07+00",18.7,22.7,,41.9,-541,-640,11,997.41,41.9,43.7
"2019-02-24 18:32:07+00",18.8,22.8,,41.9,-564,-629,4,997.28,42,45.2
"2019-02-24 18:37:07+00",13.9,17.9,,42,-377,-493,31,996.91,42.1,53.1
"2019-02-24 18:42:07+00",14.8,16.8,,42.2,-310,-550,-1,996.7,42.3,43.5
"2019-02-24 18:47:07+00",16.4,19.4,,42.3,-410,-589,8,996.51,42.3,40.2
"2019-02-24 18:52:07+00",17.8,19.8,,42.5,-476,-627,15,996.41,42.5,35.4
"2019-02-24 18:57:07+00",17.6,21.6,,42.5,-510,-593,20,996.26,42.6,38.2
"2019-02-24 19:02:07+00",14.3,17.3,,42.6,-415,-470,11,996.06,42.6,38.3
"2019-02-24 19:07:07+00",16.4,18.4,,42.6,-486,-510,-17,996.07,42.7,33.1
"2019-02-24 19:12:07+00",11.8,14.8,,42.7,-746,284,-341,995.99,42.7,32.4
"2019-02-24 19:17:07+00",12.3,16.3,,42.7,-634,27,-197,995.88,42.8,30.4
"2019-02-24 19:22:07+00",12.6,13.6,,42.7,-472,-252,-68,995.72,42.8,27.3
"2019-02-24 19:27:07+00",12.6,13.6,,42.7,-443,-297,-32,995.6,42.8,30.4
"2019-02-24 19:32:07+00",14.0,17.0,,42.6,-218,-852,236,995.33,42.8,32.6
"2019-02-24 19:37:07+00",11.9,13.9,,42.7,145,-1201,452,995.16,42.8,31.6
"2019-02-24 19:42:07+00",12.5,13.5,,42.9,-1182,1090,-819,995.03,43,31.3
"2019-02-24 19:47:07+00",12.3,15.3,,43.2,861,-2527,1233,995.12,43.2,25.1
"2019-02-24 19:52:07+00",12.0,13.0,,43.3,1723,-4018,2070,995.11,43.3,20
"2019-02-24 19:57:07+00",13.1,14.1,,43.4,956,-2765,1295,995.05,43.4,18
"2019-02-24 20:02:07+00",12.3,16.3,,43.4,874,-2537,1256,995.06,43.4,16.4
"2019-02-24 20:07:07+00",11.7,12.7,,43.4,421,-1651,790,995.05,43.3,15.9
"2019-02-24 20:12:07+00",12.6,14.6,,43.6,910,-2586,1261,994.87,43.4,20.4
"2019-02-24 20:17:07+00",10.3,12.3,,43.8,-403,-244,21,995.03,43.6,9.8
"2019-02-24 20:22:07+00",12.5,14.5,,44.2,536,-1980,974,995.02,43.9,13.1
"2019-02-24 20:27:07+00",11.3,13.3,,44.3,-298,-527,187,994.96,43.9,11.4
"2019-02-24 20:32:07+00",11.8,14.8,,44.3,-168,-736,300,995.13,44,12.7
"2019-02-24 20:37:07+00",11.4,14.4,,44.5,-454,-144,27,995.12,44,8.2
"2019-02-24 20:42:07+00",17.5,19.5,,46.5,-638,-312,138,995.1,45,4.3
"2019-02-24 20:47:07+00",20.8,23.8,,48.2,-635,-650,300,995.02,46.3,19.5
"2019-02-24 21:12:07+00",21.9,25.9,,48.8,16855,63,219,995.33,47.3,-0.1
"2019-02-24 21:17:07+00",24.2,30.2,,49.1,90,-1651,993,995.45,47.4,0.3
"2019-02-24 21:22:07+00",24.4,27.4,,49,-779,-636,338,995.44,47.5,0.1
"2019-02-24 21:27:07+00",23.7,28.7,,49,-1699,1296,-752,995.51,47.6,0.3
"2019-02-24 21:32:07+00",25.0,31.0,,49,-1073,-74,54,995.6,47.6,0
"2019-02-24 21:37:07+00",20.1,24.1,,48.6,-875,-33,52,995.69,47.5,0
"2019-02-24 21:42:07+00",20.4,23.4,,48.6,-851,-170,17,995.51,47.4,0
"2019-02-24 21:47:07+00",17.8,19.8,,48.5,-779,-62,33,995.47,47.4,0
"2019-02-24 21:52:07+00",17.7,20.7,,48.4,-770,-66,27,995.49,47.3,0
"2019-02-24 21:57:07+00",18.6,21.6,,48.3,-797,-76,63,995.43,47.2,0
"2019-02-24 22:02:07+00",19.2,22.2,,48.4,-805,-185,24,995.31,47.2,0
"2019-02-24 22:07:07+00",21.0,23.0,,48.6,-869,-180,34,995.16,47.2,0
"2019-02-24 22:12:07+00",18.0,21.0,,48.4,-774,-110,23,995.2,47.2,0
"2019-02-24 22:17:07+00",17.1,18.1,,48.2,-727,-109,20,995.29,47.2,0
"2019-02-24 22:22:07+00",17.3,19.3,,48.4,-746,-85,43,995.3,47.2,0
"2019-02-24 22:27:07+00",18.4,20.4,,48.6,-785,-91,46,995.48,47.3,0
"2019-02-24 22:32:07+00",15.4,17.4,,48.3,-669,-101,41,995.48,47.2,0
"2019-02-24 22:37:07+00",19.4,21.4,,48.4,-834,-104,24,995.41,47.2,0
"2019-02-24 22:42:07+00",16.6,18.6,,48.3,-700,-133,18,995.51,47.2,0
"2019-02-24 22:47:07+00",15.8,17.8,,48.2,-669,-139,34,995.41,47.1,0
"2019-02-24 22:52:07+00",14.4,16.4,,48.1,-611,-73,6,995.33,47,0
"2019-02-24 22:57:07+00",13.1,14.1,,48.2,-542,-150,35,995.33,47,0
"2019-02-24 23:02:07+00",12.8,14.8,,47.9,-546,-194,29,995.5,46.7,0
"2019-02-24 23:07:07+00",13.6,15.6,,47.6,-558,-131,17,995.81,46.5,0
"2019-02-24 23:12:07+00",10.7,12.7,,47.5,-460,-58,38,995.94,46.3,0
"2019-02-24 23:17:07+00",12.6,15.6,,47.9,-559,0,36,996.09,46.4,0
"2019-02-24 23:22:07+00",12.8,15.8,,47.7,-548,2,28,996.27,46.4,0
"2019-02-24 23:27:07+00",12.8,14.8,,47.6,-571,47,37,996.36,46.3,0
"2019-02-24 23:32:07+00",13.5,15.5,,47.5,-596,47,38,996.43,46.2,0
"2019-02-24 23:37:07+00",14.1,17.1,,47.4,-622,-38,18,996.53,46,0
"2019-02-24 23:42:07+00",14.7,16.7,,47.6,-650,-52,19,996.62,46.1,0
"2019-02-24 23:47:07+00",14.7,16.7,,47.5,-651,97,38,996.84,46,0
"2019-02-24 23:52:07+00",12.3,13.3,,47,-553,78,27,996.98,45.8,0
"2019-02-24 23:57:07+00",12.5,14.5,,46.8,-551,95,30,997.07,45.5,0
